Regional Weather Roundup
Issued by NWS Green Bay, WI

Home | Current Version | Previous Version | Graphics & Text | Print | Product List | Glossary Off
Versions: 1 2 3 4 5 6 7 8 9 10 11 12 13 14 15 16 17 18 19 20 21 22 23 24 25 26 27 28 29 30 31 32 33 34 35 36 37 38 39 40 41 42 43 44 45 46 47 48 49 50

000
ASUS43 KGRB 311310
RWRGRB

NORTH-CENTRAL AND NORTHEAST WISCONSIN REGIONAL WEATHER ROUNDUP
NATIONAL WEATHER SERVICE GREEN BAY WI
800 AM CDT FRI OCT 31 2014

WIZ005-009-010>012-018-019-311400-
NORTH CENTRAL WISCONSIN

CITY           SKY/WX    TMP DP  RH WIND       PRES   REMARKS
IRONWOOD       CLOUDY    28  27  93 N9G16     30.40R VSB 3/4
MANITOWISH WTR FLURRIES  26  24  92 N7        30.35R
ARBOR VITAE    CLOUDY    29  25  85 N13G22    30.34R
EAGLE RIVER    CLOUDY    27  21  80 N14G23    30.32R
LAND O LAKES   CLOUDY    27  23  87 N13G20    30.33R
RHINELANDER    CLOUDY    26  21  81 N13G23    30.32R
PHILLIPS       MOCLDY    26  21  81 N9        30.36R
ANTIGO         MOCLDY    27  21  79 N16G25    30.28R
TOMAHAWK       MOCLDY    27  22  80 N10G21    30.34R
MERRILL        PTCLDY    28  21  74 N15G25    30.32R
$$

WIZ013-073-311400-
NORTHEAST WISCONSIN

CITY           SKY/WX    TMP DP  RH WIND       PRES   REMARKS
IRON MOUNTAIN  MOCLDY    29  22  75 N18G26    30.27R
MARINETTE      CLOUDY    34  21  60 N17G36    30.22R
OCONTO         CLOUDY    33  24  68 N18G26    30.23R
$$

WIZ017-030-035>037-045-311400-
CENTRAL WISCONSIN

CITY           SKY/WX    TMP DP  RH WIND       PRES   REMARKS
MEDFORD        CLOUDY    28  23  81 N13G22    30.34R
WAUSAU         PTCLDY    29  21  72 N10G18    30.30R
MOSINEE        PTCLDY    28  21  74 N14G29    30.31R
MARSHFIELD     CLOUDY    31  23  72 N14G24    30.33R
WISC RAPIDS    CLEAR     30  21  69 N15G29    30.32R
STEVENS POINT  CLEAR     28  20  74 N17G26    30.30R
WAUPACA        CLEAR     32  24  71 N15G23    30.26R
SHAWANO        CLOUDY    34  22  61 N20G30    30.26R
CLINTONVILLE   MOCLDY    32  23  69 N15G21    30.26R
$$

WIZ038-039-048-051-311400-
FOX VALLEY

CITY           SKY/WX    TMP DP  RH WIND       PRES   REMARKS
NWS GREEN BAY  CLOUDY    34  23  64 N25G32    30.22R
APPLETON       MOCLDY    34  19  55 N22G35    30.21R
OSHKOSH        PTCLDY    33  22  63 N23G33    30.21R
FOND DU LAC    MOCLDY    34  22  61 N20G32    30.21R
$$

WIZ022-050-052-311400-
EAST CENTRAL WISCONSIN

CITY           SKY/WX    TMP DP  RH WIND       PRES   REMARKS
STURGEON BAY   CLOUDY    36  25  64 N38G47    30.17R
MANITOWOC      LGT RAIN  34  29  82 N29G39    30.14R
SHEBOYGAN      CLOUDY    34  27  75 N20G32    30.14R
$$

LMZ563-521-522-541>543-311400-
LAKESHORE

STATION/POSITION TIME  TEMP    WIND        PRES    VSBY  WAVE
                       AIR SEA DIR/SP/G                  HT/PER
                 (UTC) (F)     (DEG/KT/KT) (MB)    (MI)  (FT/S)
SHEBOYGAN LKSHOR 1300   36 49  340/ 35/ 43 1021.0R
KEWAUNEE LKSHORE 1300   33     340/ 19/ 31 1019.8R
TWO RIVERS CG    1200   34 48              1019.2          2
NORTHPORT PIER   1300   36     360/ 30/ 35 1022.7R
N MID LAKE BUOY  1300   38 50   10/ 33/ 41 1020.2R        10/ 7
STURGEON BAY CG  1200   33 48  340/  9     1020.9   3 1/2  3
CHAMBERS ISLAND  1300   36     340/ 33/ 41 1022.4R
MENOMINEE LKSHOR 1300   36     350/ 32/ 40 1023.6R
$$



USA.gov is the U.S. government's official web portal to all federal, state and local government web resources and services.